Regional Weather Roundup
Issued by NWS San Angelo, TX

Home | Current Version | Previous Version | Text Only | Print | Product List | Glossary On
Versions: 1 2 3 4 5 6 7 8 9 10 11 12 13 14 15 16 17 18 19 20 21 22 23 24 25 26 27 28 29 30 31 32 33 34 35 36 37 38 39 40 41 42 43 44 45 46 47 48 49 50
000
ASUS44 KSJT 210010
RWRSJT
WEST CENTRAL TEXAS REGIONAL WEATHER ROUNDUP
NATIONAL WEATHER SERVICE SAN ANGELO TX
700 PM CDT WED AUG 20 2014

NOTE: "FAIR" INDICATES FEW OR NO CLOUDS BELOW 12,000 FEET WITH NO
SIGNIFICANT WEATHER AND/OR OBSTRUCTIONS TO VISIBILITY.

TXZ049-054-064>066-071>073-076>078-098-099-113-114-127-128-139-140-
154-155-168>170-210100
...LOCATIONS ACROSS WEST CENTRAL TEXAS...

CITY           SKY/WX    TMP DP  RH WIND       PRES   REMARKS
SAN ANGELO     SUNNY     93  60  33 S16G23    29.89R
ABILENE        SUNNY     94  60  32 S14       29.89R
DYESS AFB      SUNNY     93  61  34 S16       29.88R
JUNCTION       SUNNY     91  62  37 S12       29.92R
SWEETWATER     SUNNY     91  64  39 SE20G25   29.93R
BROWNWOOD      SUNNY     95  55  26 S12G20    29.89S
COLEMAN        CLEAR     91  57  32 S10       29.91R
SONORA         SUNNY     90  59  35 S12G18    29.98R
OZONA          FAIR      90  61  37 S18G24    29.95R
BRADY          SUNNY     91  61  35 S9        29.92S
$$

TEXAS PANHANDLE/OKLAHOMA PANHANDLE

CITY           SKY/WX    TMP DP  RH WIND       PRES   REMARKS
AMARILLO       PTSUNNY   91  57  31 S21G29    29.90R
BORGER         PTSUNNY   93  57  29 SW13G21   29.85R
CANADIAN       SUNNY     94  62  33 S21G26    29.81R
DALHART        LGT RAIN  87  59  38 SE15      29.89R
DUMAS          MOCLDY    79  62  56 SE6       29.88F
GUYMON         NOT AVBL
HEREFORD       MOCLDY    75  64  68 S10       29.92F
PAMPA          PTCLDY    89  55  31 S20G26    29.88R
PERRYTON       SUNNY     93  57  30 S26       29.83R
$$

SOUTHERN PANHANDLE/SOUTH PLAINS/ROLLING PLAINS

CITY           SKY/WX    TMP DP  RH WIND       PRES   REMARKS
LUBBOCK        PTSUNNY   89  60  37 S15       29.90S
SNYDER         MOSUNNY   92  64  38 SE21      29.88S
CHILDRESS      MOSUNNY   97  61  30 S20G25    29.82F
SEMINOLE       MOCLDY    92  58  31 S18       29.91R
$$

PERMIAN BASIN

CITY           SKY/WX    TMP DP  RH WIND       PRES   REMARKS
MIDLAND        TSTM      75  66  73 SW10G41   29.92R VSB 3/4
ODESSA         LGT RAIN  78  67  68 S9        29.93S
WINK           PTSUNNY   91  61  36 S29G38    29.87R
$$

FAR WEST/SOUTHWEST MOUNTAINS/TRANS PECOS

CITY           SKY/WX    TMP DP  RH WIND       PRES   REMARKS
ALPINE         CLOUDY    71  65  80 SE16G30   30.08R THUNDER
DRYDEN           N/A     90  64  42 SW3       29.91R
EL PASO        MOSUNNY   91  50  24 W10G24    29.93S
FORT STOCKTON  CLOUDY    76  62  62 S18G24    29.92F
GUADALUPE PASS SUNNY     84  49  29 SW21G31   30.06R
MARFA          PTSUNNY   84  61  45 S7        30.07S
PECOS          CLOUDY    86  62  44 S23       29.88R HAZE
$$

DALLAS/FORT WORTH METROPLEX

CITY           SKY/WX    TMP DP  RH WIND       PRES   REMARKS
DFW AIRPORT    MOSUNNY   95  65  37 S13       29.88S
FTW MEACHAM    SUNNY     97  62  31 S21       29.86F
DAL-EXECUTIVE  SUNNY     96  64  34 SE14G21   29.89S
GRAND PRAIRIE  SUNNY     95  61  31 SE10G16   29.89S
ADDISON        MOSUNNY   95  61  31 S15G22    29.89F
MESQUITE       CLEAR     93  64  38 SE10G18   29.90S
LANCASTER      PTCLDY    95  64  35 SE10G17   29.90S
$$

NORTH CENTRAL TEXAS

CITY           SKY/WX    TMP DP  RH WIND       PRES   REMARKS
SHRMAN/DENISON CLEAR     93  64  38 SE14      29.90F
GAINESVILLE    SUNNY     91  67  45 SE12G17   29.90F
BRIDGEPORT     CLEAR     95  55  26 SE12      29.88S
DENTON         SUNNY     94  64  37 S16       29.87F
WAXAHACHIE     CLEAR     94  62  34 SE10G16   29.91R
GRANBURY       CLEAR     98  58  26 SE13G21   29.88R
$$

WESTERN NORTH TEXAS

CITY           SKY/WX    TMP DP  RH WIND       PRES   REMARKS
WICHITA FALLS  SUNNY     98  56  24 SE20G28   29.81F
VERNON         PTCLDY    98  57  25 S18       29.81S
BRECKENRIDGE   CLEAR     98  49  19 S16       29.86R HAZE
COMANCHE       SUNNY     94  55  26 S16G22    29.90R
$$

CENTRAL AND SOUTH CENTRAL TEXAS

CITY           SKY/WX    TMP DP  RH WIND       PRES   REMARKS
AUSTIN/BERGSTM MOSUNNY   97  65  34 S20G26    29.86S
WACO           MOSUNNY   96  64  34 SE17G23   29.87F
HILLSBORO      CLEAR     96  62  31 SE14      29.89S
TEMPLE         SUNNY     97  63  32 SE17      29.88S
KILLEEN-GRAY   NOT AVBL
FORT HOOD      SUNNY     98  62  30 SE9       29.88F
GEORGETOWN     SUNNY     97  64  34 S12G18    29.87F
LAGO VISTA     FAIR      95  60  31 SE10G21   29.91S
SAN MARCOS     SUNNY     97  64  34 SE18      29.88S
NEW BRAUNFELS  MOSUNNY   96  66  37 SE23G29   29.86S
RANDOLPH AFB   MOSUNNY   94  67  41 SE23      29.88R
SAN ANTONIO    MOSUNNY   96  68  39 SE22G29   29.88R
STINSON        SUNNY     96  66  37 SE14      29.85R
PLEASANTON     NOT AVBL
LA GRANGE      MOSUNNY   96  71  44 S14G22    29.88S
GIDDINGS       PTCLDY    95  64  36 S13G20    29.93R
$$

EAST TEXAS

CITY           SKY/WX    TMP DP  RH WIND       PRES   REMARKS
PARIS          SUNNY     91  68  46 SE10      29.94S
CLARKSVILLE    CLEAR     92  69  45 SE7       29.94F
TYLER          MOSUNNY   92  71  50 SE12      29.95S
LONGVIEW       SUNNY     91  71  51 SE10      29.95F
PALESTINE      MOCLDY    85  74  69 E6        29.96S
NACOGDOCHES    CLOUDY    81  72  74 SE9       29.99F
$$

TEXAS HILL COUNTRY AND EDWARDS PLATEAU

CITY           SKY/WX    TMP DP  RH WIND       PRES   REMARKS
LLANO          PTCLDY    97  61  30 S14       29.91S
HORSESHOE BAY  FAIR      95  57  27 S8G18     29.89S
KERRVILLE      SUNNY     92  62  35 SE10      29.92S
FREDERICKSBRG  SUNNY     92  59  32 S12       29.93R
ROCKSPRINGS    CLEAR     88  63  42 SE12      29.97S
HONDO          MOSUNNY   95  62  33 SE15      29.87S
UVALDE         MOCLDY    98  63  31 SE13G18   29.85S
DEL RIO        MOSUNNY   98  61  29 SE12G20   29.82R
$$

SOUTHEAST TEXAS

CITY           SKY/WX    TMP DP  RH WIND       PRES   REMARKS
COLLEGE STN    CLOUDY    83  72  69 SE14      29.93S
CALDWELL       CLOUDY    84  70  61 E9G16     29.94S
CROCKETT         N/A    N/A N/A N/A MISG        N/A
BRENHAM        CLOUDY    86  74  68 E12       29.92S
HUNTSVILLE     CLOUDY    82  71  69 SE5       29.97R
CONROE         CLOUDY    77  72  84 E5        29.98R
HOUSTON BUSH   CLOUDY    83  74  74 SE9       29.96S
HOUSTON HOBBY  PTSUNNY   87  75  67 S10       29.96R
PERLAND        MOSUNNY   88  75  65 S10G22    29.98R
WHARTON        CLEAR     89  74  62 SE18      29.95S
$$

THE UPPER TEXAS COAST

CITY           SKY/WX    TMP DP  RH WIND       PRES   REMARKS
ORANGE         CLOUDY    87  75  68 SE7       30.03R
PORT ARTHUR    PTSUNNY   87  77  72 S9        30.00S
GALVESTON      PTSUNNY   88  79  74 S16       29.99R
ANGLETON       MOSUNNY   87  76  69 S14       29.97S
BAY CITY       PTCLDY    90  77  66 SE16      29.96S
$$

TEXAS COASTAL BEND, RIO GRANDE PLAINS DEEP SOUTH TEXAS

CITY           SKY/WX    TMP DP  RH WIND       PRES   REMARKS
VICTORIA       MOSUNNY   90  76  63 S23       29.93R
BEEVILLE       FAIR      90  72  55 SE21G30   29.90R
ROCKPORT       LGT RAIN  88  77  69 SE16G25   29.92R
PORT ARANSAS   PTCLDY    86  78  76 SE14G20   29.92R
PORT LAVACA    CLEAR     87  77  71 SE12      29.94R
CORPUS CHRISTI PTSUNNY   89  75  63 SE26G36   29.90R
KINGSVILLE NAS PTSUNNY   89  76  65 SE20G33   29.88R
COTULLA        SUNNY     98  65  33 SE21      29.81S
LAREDO         MOSUNNY  101  65  30 SE13G22   29.82S
BROWNSVILLE    MOSUNNY   89  77  67 SE20G30   29.90R
PORT ISABEL    MOSUNNY   90  76  63 SE21G30   29.90R
HEBBRONVILLE   CLEAR     97  62  32 SE18G26   29.85S
MCALLEN        SUNNY     92  72  51 SE28G33   29.86R
WESLACO        SUNNY     92  70  48 S21G29    29.86S
FALFURRIAS     CLEAR     98  75  47 SE20G28   29.85R
EDINBURG       CLEAR     95  68  41 S20G26    29.86R
$$


USA.gov is the U.S. government's official web portal to all federal, state and local government web resources and services.